Time,TemperatureF,DewpointF,PressureIn,WindDirection,WindDirectionDegrees,WindSpeedMPH,WindSpeedGustMPH,Humidity,HourlyPrecipIn,Conditions,Clouds,dailyrainin,SoftwareType,DateUTC
2013-01-19 00:00:00,35.0,33.0,-100.00,North,-999,-999.0,-999.0,95,-99.99,,,-99.99,,2013-01-19 00:00:00,
2013-01-19 00:32:00,35.0,33.0,-100.00,North,-999,-999.0,-999.0,95,-99.99,,,-99.99,,2013-01-19 00:32:00,
2013-01-19 00:42:00,35.0,33.0,-100.00,North,-999,-999.0,-999.0,95,-99.99,,,-99.99,,2013-01-19 00:42:00,
2013-01-19 00:52:00,35.0,33.0,-100.00,North,-999,-999.0,-999.0,95,-99.99,,,-99.99,,2013-01-19 00:52:00,
2013-01-19 01:00:00,32.0,32.0,-100.00,North,-999,-999.0,-999.0,99,-99.99,,,-99.99,,2013-01-19 01:00:00,
2013-01-19 01:42:00,32.0,32.0,-100.00,North,-999,-999.0,-999.0,99,-99.99,,,-99.99,,2013-01-19 01:42:00,
2013-01-19 01:52:00,32.0,32.0,-100.00,North,-999,-999.0,-999.0,99,-99.99,,,-99.99,,2013-01-19 01:52:00,
2013-01-19 02:00:00,32.0,-99.9,-100.00,North,-999,-999.0,-999.0,-999,-99.99,,,-99.99,,2013-01-19 02:00:00,
2013-01-19 02:43:00,32.0,-99.9,-100.00,North,-999,-999.0,-999.0,-999,-99.99,,,-99.99,,2013-01-19 02:43:00,
2013-01-19 02:53:00,32.0,-99.9,-100.00,North,-999,-999.0,-999.0,-999,-99.99,,,-99.99,,2013-01-19 02:53:00,
2013-01-19 03:00:00,32.0,32.0,-100.00,North,-999,-999.0,-999.0,100,-99.99,,,-99.99,,2013-01-19 03:00:00,
2013-01-19 03:42:00,32.0,32.0,-100.00,North,-999,-999.0,-999.0,100,-99.99,,,-99.99,,2013-01-19 03:42:00,
2013-01-19 03:52:00,32.0,32.0,-100.00,North,-999,-999.0,-999.0,100,-99.99,,,-99.99,,2013-01-19 03:52:00,
2013-01-19 04:42:00,35.0,34.0,-100.00,North,-999,-999.0,-999.0,97,-99.99,,,-99.99,,2013-01-19 04:42:00,
2013-01-19 04:52:00,35.0,34.0,-100.00,North,-999,-999.0,-999.0,97,-99.99,,,-99.99,,2013-01-19 04:52:00,
2013-01-19 05:00:00,36.0,34.0,-100.00,North,-999,-999.0,-999.0,92,-99.99,,,-99.99,,2013-01-19 05:00:00,
2013-01-19 05:42:00,36.0,34.0,-100.00,North,-999,-999.0,-999.0,92,-99.99,,,-99.99,,2013-01-19 05:42:00,
2013-01-19 05:52:00,36.0,34.0,-100.00,North,-999,-999.0,-999.0,92,-99.99,,,-99.99,,2013-01-19 05:52:00,
2013-01-19 06:00:00,37.0,36.0,-100.00,North,-999,-999.0,-999.0,93,-99.99,,,-99.99,,2013-01-19 06:00:00,
2013-01-19 06:42:00,37.0,36.0,-100.00,North,-999,-999.0,-999.0,93,-99.99,,,-99.99,,2013-01-19 06:42:00,
2013-01-19 06:52:00,37.0,36.0,-100.00,North,-999,-999.0,-999.0,93,-99.99,,,-99.99,,2013-01-19 06:52:00,
2013-01-19 07:00:00,37.0,35.0,-100.00,North,-999,-999.0,-999.0,93,-99.99,,,-99.99,,2013-01-19 07:00:00,
2013-01-19 07:42:00,37.0,35.0,-100.00,North,-999,-999.0,-999.0,93,-99.99,,,-99.99,,2013-01-19 07:42:00,
2013-01-19 07:52:00,37.0,35.0,-100.00,North,-999,-999.0,-999.0,93,-99.99,,,-99.99,,2013-01-19 07:52:00,
2013-01-19 08:00:00,38.0,35.0,-100.00,North,-999,-999.0,-999.0,91,-99.99,,,-99.99,,2013-01-19 08:00:00,
2013-01-19 08:32:00,38.0,35.0,-100.00,North,-999,-999.0,-999.0,91,-99.99,,,-99.99,,2013-01-19 08:32:00,
2013-01-19 08:42:00,38.0,35.0,-100.00,North,-999,-999.0,-999.0,91,-99.99,,,-99.99,,2013-01-19 08:42:00,
2013-01-19 08:52:00,38.0,35.0,-100.00,North,-999,-999.0,-999.0,91,-99.99,,,-99.99,,2013-01-19 08:52:00,
2013-01-19 09:00:00,37.0,34.0,-100.00,North,-999,-999.0,-999.0,87,-99.99,,,-99.99,,2013-01-19 09:00:00,
2013-01-19 09:42:00,37.0,34.0,-100.00,North,-999,-999.0,-999.0,87,-99.99,,,-99.99,,2013-01-19 09:42:00,
2013-01-19 09:52:00,37.0,34.0,-100.00,North,-999,-999.0,-999.0,87,-99.99,,,-99.99,,2013-01-19 09:52:00,
2013-01-19 10:00:00,38.0,30.0,-100.00,North,-999,-999.0,-999.0,75,-99.99,,,-99.99,,2013-01-19 10:00:00,
2013-01-19 10:42:00,38.0,30.0,-100.00,North,-999,-999.0,-999.0,75,-99.99,,,-99.99,,2013-01-19 10:42:00,
2013-01-19 10:52:00,38.0,30.0,-100.00,North,-999,-999.0,-999.0,75,-99.99,,,-99.99,,2013-01-19 10:52:00,
2013-01-19 12:00:00,34.0,29.0,-100.00,North,-999,-999.0,-999.0,81,-99.99,,,-99.99,,2013-01-19 12:00:00,
2013-01-19 12:52:00,34.0,29.0,-100.00,North,-999,-999.0,-999.0,81,-99.99,,,-99.99,,2013-01-19 12:52:00,
2013-01-19 13:00:00,34.0,29.0,-100.00,North,-999,-999.0,-999.0,82,-99.99,,,-99.99,,2013-01-19 13:00:00,
2013-01-19 13:42:00,34.0,29.0,-100.00,North,-999,-999.0,-999.0,82,-99.99,,,-99.99,,2013-01-19 13:42:00,
2013-01-19 13:52:00,34.0,29.0,-100.00,North,-999,-999.0,-999.0,82,-99.99,,,-99.99,,2013-01-19 13:52:00,
2013-01-19 14:00:00,35.0,31.0,-100.00,North,-999,-999.0,-999.0,83,-99.99,,,-99.99,,2013-01-19 14:00:00,
2013-01-19 14:33:00,35.0,31.0,-100.00,North,-999,-999.0,-999.0,83,-99.99,,,-99.99,,2013-01-19 14:33:00,
2013-01-19 14:42:00,35.0,31.0,-100.00,North,-999,-999.0,-999.0,83,-99.99,,,-99.99,,2013-01-19 14:42:00,
2013-01-19 14:52:00,35.0,31.0,-100.00,North,-999,-999.0,-999.0,83,-99.99,,,-99.99,,2013-01-19 14:52:00,
2013-01-19 15:00:00,37.0,31.0,-100.00,North,-999,-999.0,-999.0,77,-99.99,,,-99.99,,2013-01-19 15:00:00,
2013-01-19 15:32:00,37.0,31.0,-100.00,North,-999,-999.0,-999.0,77,-99.99,,,-99.99,,2013-01-19 15:32:00,
2013-01-19 15:42:00,37.0,31.0,-100.00,North,-999,-999.0,-999.0,77,-99.99,,,-99.99,,2013-01-19 15:42:00,
2013-01-19 15:52:00,37.0,31.0,-100.00,North,-999,-999.0,-999.0,77,-99.99,,,-99.99,,2013-01-19 15:52:00,
2013-01-19 16:00:00,38.0,30.0,-100.00,North,-999,-999.0,-999.0,71,-99.99,,,-99.99,,2013-01-19 16:00:00,
2013-01-19 16:42:00,38.0,30.0,-100.00,North,-999,-999.0,-999.0,71,-99.99,,,-99.99,,2013-01-19 16:42:00,
2013-01-19 16:52:00,38.0,30.0,-100.00,North,-999,-999.0,-999.0,71,-99.99,,,-99.99,,2013-01-19 16:52:00,
2013-01-19 17:43:00,39.0,29.0,-100.00,North,-999,-999.0,-999.0,68,-99.99,,,-99.99,,2013-01-19 17:43:00,
2013-01-19 17:53:00,39.0,29.0,-100.00,North,-999,-999.0,-999.0,68,-99.99,,,-99.99,,2013-01-19 17:53:00,
2013-01-19 18:00:00,38.0,30.0,-100.00,North,-999,-999.0,-999.0,71,-99.99,,,-99.99,,2013-01-19 18:00:00,
2013-01-19 18:42:00,38.0,30.0,-100.00,North,-999,-999.0,-999.0,71,-99.99,,,-99.99,,2013-01-19 18:42:00,
2013-01-19 18:52:00,38.0,30.0,-100.00,North,-999,-999.0,-999.0,71,-99.99,,,-99.99,,2013-01-19 18:52:00,
2013-01-19 19:42:00,38.0,31.0,-100.00,North,-999,-999.0,-999.0,73,-99.99,,,-99.99,,2013-01-19 19:42:00,
2013-01-19 19:52:00,38.0,31.0,-100.00,North,-999,-999.0,-999.0,73,-99.99,,,-99.99,,2013-01-19 19:52:00,
2013-01-19 20:00:00,38.0,30.0,-100.00,North,-999,-999.0,-999.0,71,-99.99,,,-99.99,,2013-01-19 20:00:00,
2013-01-19 20:42:00,38.0,30.0,-100.00,North,-999,-999.0,-999.0,71,-99.99,,,-99.99,,2013-01-19 20:42:00,
2013-01-19 20:52:00,38.0,30.0,-100.00,North,-999,-999.0,-999.0,71,-99.99,,,-99.99,,2013-01-19 20:52:00,
2013-01-19 21:00:00,38.0,30.0,-100.00,North,-999,-999.0,-999.0,70,-99.99,,,-99.99,,2013-01-19 21:00:00,
2013-01-19 21:43:00,38.0,30.0,-100.00,North,-999,-999.0,-999.0,70,-99.99,,,-99.99,,2013-01-19 21:43:00,
2013-01-19 22:00:00,39.0,27.0,-100.00,North,-999,-999.0,-999.0,62,-99.99,,,-99.99,,2013-01-19 22:00:00,
2013-01-19 22:42:00,39.0,27.0,-100.00,North,-999,-999.0,-999.0,62,-99.99,,,-99.99,,2013-01-19 22:42:00,
2013-01-19 22:52:00,39.0,27.0,-100.00,North,-999,-999.0,-999.0,62,-99.99,,,-99.99,,2013-01-19 22:52:00,
2013-01-19 23:00:00,37.0,28.0,-100.00,North,-999,-999.0,-999.0,68,-99.99,,,-99.99,,2013-01-19 23:00:00,
2013-01-19 23:42:00,37.0,28.0,-100.00,North,-999,-999.0,-999.0,68,-99.99,,,-99.99,,2013-01-19 23:42:00,
2013-01-19 23:53:00,37.0,28.0,-100.00,North,-999,-999.0,-999.0,68,-99.99,,,-99.99,,2013-01-19 23:53:00,